Chitose AB, Japan

1:42 PM JST on April 23, 2018 (GMT +0900)
New Chitose

Weather History for RJCC - December, 2012

Change the Weather History Date:

Tuesday, December 11, 2012

  Actual Average Record
Temperature  
Mean Temperature 22 °F -  
Max Temperature 32 °F 30 °F 46 °F (2010)
Min Temperature 12 °F 11 °F 6 °F (2002)
Degree Days  
Heating Degree Days 43    
Moisture  
Dew Point 23 °F    
Average Humidity 93    
Maximum Humidity 100    
Minimum Humidity 75    
Precipitation  
Precipitation 0.00 in - - ()
Sea Level Pressure  
Sea Level Pressure 29.81 in    
Wind  
Wind Speed 5 mph ()    
Max Wind Speed 10 mph    
Max Gust Speed -    
Visibility 4.0 miles    
Events Fog , Snow    
Averages and records for this station are not official NWS values.
T = Trace of Precipitation, MM = Missing Value Source: Averaged Metar Reports

Daily Weather History Graph

Daily Weather History Graph

Search for Another Location

Airport or City:

Astronomy

Dec. 11, 2012 Rise Set
Actual Time 6:53 AM JST 3:59 PM JST
Civil Twilight 6:21 AM JST 4:31 PM JST
Nautical Twilight 5:46 AM JST 5:07 PM JST
Astronomical Twilight 5:11 AM JST 5:41 PM JST
Moon 4:00 AM JST (12/11) 2:07 PM JST (12/11)
Length of Visible Light 10h 09m
Length of Day
9h 05m
Waning Crescent, 7% of the Moon is Illuminated
Dec 11
Waning Crescent
Dec 13
New
Dec 20
First Quarter
Dec 28
Full
Jan 5
Last Quarter

Hourly Weather History & Observations

Time (JST) Temp. Windchill Dew Point Humidity Pressure Visibility Wind Dir Wind Speed Gust Speed Precip Events Conditions
12:00 AM 23.0 °F 12.4 °F 19.4 °F 86% 29.71 in 6.2 mi NNW 10.4 mph - N/A   Partly Cloudy
12:30 AM 21.2 °F 13.6 °F 19.4 °F 93% 29.71 in 6.2 mi NNW 5.8 mph - N/A   Partly Cloudy
1:00 AM 23.0 °F 17.0 °F 21.2 °F 93% 29.71 in 6.2 mi NNW 4.6 mph - N/A   Partly Cloudy
1:30 AM 21.2 °F 16.4 °F 19.4 °F 93% 29.71 in 6.2 mi NW 3.5 mph - N/A   Partly Cloudy
2:00 AM 17.6 °F 12.3 °F 17.6 °F 100% 29.74 in 6.2 mi NE 3.5 mph - N/A   Partly Cloudy
2:30 AM 19.4 °F 14.3 °F 17.6 °F 93% 29.74 in 6.2 mi NNE 3.5 mph - N/A   Partly Cloudy
3:00 AM 17.6 °F 10.7 °F 17.6 °F 100% 29.74 in 6.2 mi NNE 4.6 mph - N/A   Partly Cloudy
3:30 AM 14.0 °F 6.5 °F 14.0 °F 100% 29.74 in 6.2 mi NNW 4.6 mph - N/A   Partly Cloudy
4:00 AM 15.8 °F 8.6 °F 15.8 °F 100% 29.74 in 6.2 mi North 4.6 mph - N/A   Partly Cloudy
4:30 AM 14.0 °F 6.5 °F 14.0 °F 100% 29.74 in 0.9 mi NNW 4.6 mph - N/A Fog Patches of Fog
4:41 AM 14.0 °F 6.5 °F 14.0 °F 100% 29.74 in 0.6 mi NNW 4.6 mph - N/A Fog Light Freezing Fog
5:00 AM 14.0 °F 5.1 °F 14.0 °F 100% 29.74 in 1.2 mi North 5.8 mph - N/A Fog Patches of Fog
5:18 AM 12.2 °F 1.7 °F 12.2 °F 100% 29.74 in 1.5 mi North 6.9 mph - N/A Fog Patches of Fog
5:28 AM 14.0 °F 6.5 °F 12.2 °F 93% 29.74 in - NNW 4.6 mph - N/A Fog Patches of Fog
5:30 AM 14.0 °F 6.5 °F 12.2 °F 93% 29.77 in - NNW 4.6 mph - N/A Fog Patches of Fog
5:42 AM 12.2 °F 1.7 °F 12.2 °F 100% 29.77 in 3.1 mi NNW 6.9 mph - N/A Fog Patches of Fog
6:00 AM 12.2 °F 2.9 °F 12.2 °F 100% 29.77 in 6.2 mi North 5.8 mph - N/A   Partly Cloudy
6:30 AM 12.2 °F 4.3 °F 12.2 °F 100% 29.77 in 6.2 mi NNE 4.6 mph - N/A   Mostly Cloudy
7:00 AM 14.0 °F 5.1 °F 12.2 °F 93% 29.80 in 6.2 mi NNW 5.8 mph - N/A   Mostly Cloudy
7:30 AM 15.8 °F 7.2 °F 14.0 °F 93% 29.80 in 6.2 mi North 5.8 mph - N/A Fog Mostly Cloudy
8:00 AM 14.0 °F 5.1 °F 14.0 °F 100% 29.80 in 6.2 mi North 5.8 mph - N/A   Partly Cloudy
8:30 AM 17.6 °F 10.7 °F 17.6 °F 100% 29.80 in 6.2 mi NNW 4.6 mph - N/A   Scattered Clouds
9:00 AM 19.4 °F 12.8 °F 17.6 °F 93% 29.80 in 6.2 mi North 4.6 mph - N/A   Partly Cloudy
9:30 AM 23.0 °F 17.0 °F 21.2 °F 93% 29.80 in 6.2 mi NW 4.6 mph - N/A   Mostly Cloudy
10:00 AM 24.8 °F 20.5 °F 21.2 °F 86% 29.80 in 6.2 mi NNW 3.5 mph - N/A   Mostly Cloudy
10:30 AM 26.6 °F - 21.2 °F 80% 29.80 in 6.2 mi Variable 2.3 mph - N/A   Scattered Clouds
11:00 AM 30.2 °F 25.4 °F 24.8 °F 80% 29.80 in 6.2 mi North 4.6 mph - N/A Snow Light Snow Showers
11:09 AM 30.2 °F 21.9 °F 24.8 °F 80% 29.80 in - NNW 9.2 mph - N/A Snow Light Snow Showers
11:14 AM 30.2 °F 21.3 °F 26.6 °F 86% 29.80 in - NNW 10.4 mph - N/A Snow Light Snow Showers
11:22 AM 30.2 °F 21.9 °F 26.6 °F 86% 29.80 in - NNW 9.2 mph - N/A Snow Light Snow Showers
11:30 AM 30.2 °F 23.4 °F 24.8 °F 80% 29.80 in 3.1 mi NNW 6.9 mph - N/A Snow Light Snow Showers
12:00 PM 30.2 °F 21.9 °F 26.6 °F 86% 29.80 in - NNW 9.2 mph - N/A Snow Light Snow Showers
12:07 PM 30.2 °F 21.9 °F 26.6 °F 86% 29.80 in - NNW 9.2 mph - N/A Snow Light Snow Showers
12:24 PM 30.2 °F 21.9 °F 26.6 °F 86% 29.80 in - NW 9.2 mph - N/A Snow Light Snow Showers
12:30 PM 30.2 °F 21.9 °F 26.6 °F 86% 29.77 in 1.9 mi NW 9.2 mph - N/A Snow Light Snow Showers
12:40 PM 30.2 °F 21.9 °F 26.6 °F 86% 29.77 in - NNW 9.2 mph - N/A Snow Light Snow Showers
12:46 PM 30.2 °F 22.6 °F 26.6 °F 86% 29.77 in 3.1 mi NNW 8.1 mph - N/A Snow Light Snow Showers
1:00 PM 32.0 °F 24.2 °F 26.6 °F 80% 29.77 in 6.2 mi NNW 9.2 mph - N/A Snow Light Snow Showers
1:30 PM 30.2 °F 21.3 °F 24.8 °F 80% 29.77 in 6.2 mi North 10.4 mph - N/A   Scattered Clouds
2:00 PM 32.0 °F 24.2 °F 24.8 °F 75% 29.80 in 6.2 mi NNW 9.2 mph - N/A   Partly Cloudy
2:30 PM 30.2 °F 23.4 °F 26.6 °F 86% 29.80 in 6.2 mi NNW 6.9 mph - N/A   Scattered Clouds
3:00 PM 30.2 °F 22.6 °F 24.8 °F 80% 29.80 in 6.2 mi NNW 8.1 mph - N/A   Partly Cloudy
3:30 PM 30.2 °F 24.3 °F 24.8 °F 80% 29.80 in 6.2 mi NNW 5.8 mph - N/A   Scattered Clouds
4:00 PM 28.4 °F 20.4 °F 24.8 °F 86% 29.83 in 6.2 mi NNW 8.1 mph - N/A Snow Light Snow Showers
4:12 PM 30.2 °F 22.6 °F 26.6 °F 86% 29.83 in - NW 8.1 mph - N/A Snow Light Snow Showers
4:14 PM 30.2 °F 22.6 °F 26.6 °F 86% 29.83 in 1.4 mi NW 8.1 mph - N/A Snow Light Snow Showers
4:21 PM 28.4 °F 21.2 °F 26.6 °F 93% 29.83 in - NW 6.9 mph - N/A Snow Light Snow Showers
4:30 PM 30.2 °F 23.4 °F 26.6 °F 86% 29.83 in 2.8 mi NW 6.9 mph - N/A Snow Light Snow Showers
5:00 PM 28.4 °F 23.3 °F 26.6 °F 93% 29.83 in 5.0 mi NNE 4.6 mph - N/A Snow Light Snow Showers
5:28 PM 26.6 °F - 24.8 °F 93% 29.83 in - NE 2.3 mph - N/A Snow Light Snow Showers
5:30 PM 26.6 °F - 24.8 °F 93% 29.83 in - ENE 2.3 mph - N/A Snow Light Snow Showers
5:40 PM 26.6 °F - 24.8 °F 93% 29.83 in - Calm Calm - N/A Snow Light Snow Showers
6:00 PM 28.4 °F - 26.6 °F 93% 29.83 in 4.3 mi Calm Calm - N/A Snow Light Snow Showers
6:15 PM 26.6 °F 22.6 °F 26.6 °F 100% 29.83 in - WSW 3.5 mph - N/A Snow Light Snow Showers
6:30 PM 26.6 °F 22.6 °F 26.6 °F 100% 29.83 in 3.1 mi West 3.5 mph - N/A Snow Light Snow Showers
7:00 PM 24.8 °F - 24.8 °F 100% 29.86 in 3.7 mi Variable 1.2 mph - N/A Snow Light Snow Showers
7:30 PM 28.4 °F - 28.4 °F 100% 29.86 in 5.0 mi Variable 2.3 mph - N/A Snow Light Snow Showers
7:41 PM 28.4 °F - 26.6 °F 93% 29.86 in - Variable 1.2 mph - N/A Snow Light Snow Showers
7:42 PM 28.4 °F - 26.6 °F 93% 29.86 in 1.4 mi Variable 2.3 mph - N/A Snow Light Snow Showers
7:49 PM 26.6 °F 22.6 °F 26.6 °F 100% 29.86 in 1.2 mi NNE 3.5 mph - N/A Snow Light Snow Showers
8:00 PM 26.6 °F 22.6 °F 26.6 °F 100% 29.86 in 1.5 mi NE 3.5 mph - N/A Snow Light Snow Showers
8:08 PM 26.6 °F - 26.6 °F 100% 29.86 in - ENE 1.2 mph - N/A Snow Light Snow Showers
8:30 PM 26.6 °F - 26.6 °F 100% 29.86 in 2.8 mi NNE 1.2 mph - N/A Snow Light Snow Showers
8:37 PM 26.6 °F - 26.6 °F 100% 29.86 in - North 2.3 mph - N/A Snow Light Snow Showers
8:47 PM 28.4 °F - 28.4 °F 100% 29.86 in 1.9 mi NNW 2.3 mph - N/A Snow Light Snow Showers
9:00 PM 28.4 °F 24.6 °F 26.6 °F 93% 29.86 in 1.6 mi NNW 3.5 mph - N/A Snow Light Snow Showers
9:23 PM 26.6 °F 22.6 °F 26.6 °F 100% 29.86 in 1.4 mi North 3.5 mph - N/A Snow Light Snow Showers
9:26 PM 26.6 °F 22.6 °F 26.6 °F 100% 29.86 in 0.9 mi North 3.5 mph - N/A Snow Light Snow Showers
9:30 PM 26.6 °F 22.6 °F 26.6 °F 100% 29.86 in 0.9 mi NNE 3.5 mph - N/A Snow Light Snow Showers
9:46 PM 26.6 °F 22.6 °F 26.6 °F 100% 29.86 in 0.6 mi North 3.5 mph - N/A Snow Snow Showers
10:00 PM 28.4 °F 23.3 °F 28.4 °F 100% 29.89 in 0.5 mi NW 4.6 mph - N/A Snow Snow Showers
10:05 PM 28.4 °F 22.2 °F 28.4 °F 100% 29.89 in 0.6 mi NW 5.8 mph - N/A Snow Snow Showers
10:11 PM 30.2 °F 23.4 °F 30.2 °F 100% 29.89 in 0.6 mi NW 6.9 mph - N/A Snow Light Snow Showers
10:19 PM 30.2 °F 21.9 °F 30.2 °F 100% 29.89 in 1.5 mi NW 9.2 mph - N/A Snow Light Snow Showers
10:23 PM 30.2 °F 21.9 °F 30.2 °F 100% 29.89 in 3.1 mi NW 9.2 mph - N/A Snow Light Snow Showers
10:30 PM 28.4 °F 19.1 °F 28.4 °F 100% 29.89 in 6.2 mi NNW 10.4 mph - N/A Snow Light Snow Showers
11:00 PM 24.8 °F 20.5 °F 24.8 °F 100% 29.89 in 3.7 mi NNE 3.5 mph - N/A Snow Light Snow Showers
11:30 PM 23.0 °F 17.0 °F 23.0 °F 100% 29.89 in 4.3 mi North 4.6 mph - N/A Snow Light Snow Showers